Location: Seattle
(47.6064°N, 122.3308°W)
Time: 01:40:44
(UTC-08:00)

A-11 Canister half - Pass Details

Date: 03 December 2020
Orbit: 1524 x 1684 km, 47.3° (Epoch: 21 January)

Event Time Altitude Azimuth Distance (km) Brightness Sun altitude
Rises 05:14:12 0° 234° (SW) 4,927 - -23.7°
Reaches altitude 10° 05:17:24 10° 232° (SW) 3,943 - -23.1°
Exits shadow 05:18:48 15° 230° (SW) 3,521 10.5 -22.9°
Maximum altitude 05:27:23 65° 154° (SSE) 1,810 9.4 -21.5°
Drops below altitude 10° 05:37:15 10° 75° (ENE) 3,895 12.0 -19.8°
Sets 05:40:23 0° 73° (ENE) 4,865 12.7 -19.3°
